Regional Weather Roundup
Issued by NWS

Home | Current Version | Previous Version | Graphics & Text | Print | Product List | Glossary Off
Versions: 1 2 3 4 5 6 7 8 9 10 11 12 13 14 15 16 17 18 19 20 21 22 23 24 25 26 27 28 29 30 31 32 33 34 35 36 37 38 39 40 41 42 43 44 45 46 47 48 49 50

000
ASUS43 KMKX 280600
RWRWI

WISCONSIN REGIONAL WEATHER ROUNDUP
NATIONAL WEATHER SERVICE MILWAUKEE/SULLIVAN WI
100 AM CDT MON JUL 28 2014

NOTE: "FAIR" INDICATES FEW OR NO CLOUDS BELOW 12,000 FEET WITH NO
SIGNIFICANT WEATHER AND/OR OBSTRUCTIONS TO VISIBILITY.

WIZ001-002-006>008-014>016-023>028-280700-
NORTHWEST WISCONSIN

CITY           SKY/WX    TMP DP  RH WIND       PRES   REMARKS
SUPERIOR ARPT  MOCLDY    59  55  85 N3        30.10S
ASHLAND        CLEAR     51  50  96 SW5       30.11S
6HR MIN TEMP:  50; 6HR MAX TEMP:  62;

HAYWARD        CLEAR     50  48  93 CALM      30.12R
6HR MIN TEMP:  49; 6HR MAX TEMP:  63;

SIREN          PTCLDY    55  54  95 CALM      30.12S
RICE LAKE      CLOUDY    55  52  89 CALM      30.13R
6HR MIN TEMP:  55; 6HR MAX TEMP:  65;

LADYSMITH      CLEAR     55  51  88 NW8       30.12S
6HR MIN TEMP:  55; 6HR MAX TEMP:  64;

EAU CLAIRE     NOT AVBL
MENOMONIE      PTCLDY    56  53  90 CALM      30.12R
6HR MIN TEMP:  56; 6HR MAX TEMP:  69;

NEW RICHMOND   CLOUDY    60  57  92 NW3       30.13R
OSCEOLA        CLOUDY    61  58  91 CALM      30.16R
$$

WIZ003>005-009-010-017-018-280700-
NORTH CENTRAL WISCONSIN

CITY           SKY/WX    TMP DP  RH WIND       PRES   REMARKS
WOODRUFF       CLEAR     51  49  92 N5        30.08R
RHINELANDER    CLEAR     51  49  92 NW3       30.07R
6HR MIN TEMP:  51; 6HR MAX TEMP:  60;

EAGLE RIVER    CLEAR     51  49  93 N5        30.06R
LAND O LAKES   CLEAR     53  48  85 N7        30.07S
PHILLIPS       CLEAR     49  48  97 CALM      30.09S
6HR MIN TEMP:  49; 6HR MAX TEMP:  62;

TOMAHAWK       CLEAR     50  48  93 CALM      30.07S
MEDFORD        CLEAR     52  50  93 NW7       30.08R
MERRILL        CLEAR     52  51  97 NW6       30.06R
$$

WIZ029-030-035-036-043>047-280700-
CENTRAL WISCONSIN

CITY           SKY/WX    TMP DP  RH WIND       PRES   REMARKS
WAUSAU         CLEAR     55  52  89 NW7       30.05R
6HR MIN TEMP:  55; 6HR MAX TEMP:  65;

MOSINEE        CLEAR     52  52 100 NW7       30.07R
MARSHFIELD     CLEAR     54  51  90 NW9       30.07R
6HR MIN TEMP:  54; 6HR MAX TEMP:  68;

STEVENS POINT  CLEAR     53  50  89 NW5       30.05R
WAUPACA        CLEAR     58  52  83 NW6       30.03R
6HR MIN TEMP:  58; 6HR MAX TEMP:  68; 6HR PCP:  0.01;

WAUTOMA        NOT AVBL
WISC RAPIDS    CLEAR     56  52  86 MISG      30.07R
6HR MIN TEMP:  56; 6HR MAX TEMP:  69;

CAMP DOUGLAS   NOT AVBL
$$

WIZ011>013-019>022-031-037>040-048>050-280700-
NORTHEAST WISCONSIN

CITY           SKY/WX    TMP DP  RH WIND       PRES   REMARKS
ANTIGO         CLEAR     51  49  93 N7        30.04S
STURGEON BAY   CLEAR     57  46  67 N18G26    29.97S
6HR MIN TEMP:  57; 6HR MAX TEMP:  63;

GREEN BAY      CLEAR     57  50  77 N9        29.99R
6HR MIN TEMP:  57; 6HR MAX TEMP:  67;

MANITOWOC      NOT AVBL
APPLETON       CLEAR     55  50  82 N13       30.00R
CLINTONVILLE   CLEAR     55  50  82 NW5       30.02R
OSHKOSH        CLEAR     59  52  77 N12       30.00R
6HR MIN TEMP:  59; 6HR MAX TEMP:  69;

$$

WIZ032>034-041-042-053>061-280700-
SOUTHWEST WISCONSIN

CITY           SKY/WX    TMP DP  RH WIND       PRES   REMARKS
LA CROSSE      CLEAR     59  54  83 N7        30.08R
6HR MIN TEMP:  59; 6HR MAX TEMP:  76;

SPARTA         CLEAR     55  50  85 N3        30.08R
VIROQUA        FAIR      58  55  89 N8        30.07R
BOSCOBEL       CLEAR     64  54  69 N8        30.05R
6HR MIN TEMP:  63; 6HR MAX TEMP:  77; 6HR PCP:  0.10;

PRAIRIE DU CHI CLEAR     64  56  73 N5        30.04R
PLATTEVILLE    CLOUDY    63  59  87 N10       30.03R
$$

WIZ056-057-062-063-064-067-068-280700-
SOUTH CENTRAL WISCONSIN

CITY           SKY/WX    TMP DP  RH WIND       PRES   REMARKS
BARABOO/DELLS  CLEAR     59  52  76 N5        30.04R
LONE ROCK      NOT AVBL
WATERTOWN      CLEAR     59  55  85 N9        29.98R
MADISON        CLEAR     60  54  80 NW7       30.01R
6HR MIN TEMP:  60; 6HR MAX TEMP:  71; 6HR PCP: TRACE;

MIDDLETON      FAIR      61  57  88 N7        30.02R
MONROE         CLEAR     61  55  82 N12       30.00R
JANESVILLE     CLEAR     63  52  67 N12       29.98R
$$

WIZ051-052-058>065-066-070>072-280700-
SOUTHEAST WISCONSIN

CITY           SKY/WX    TMP DP  RH WIND       PRES   REMARKS
MILWAUKEE      PTCLDY    62  52  69 NW9       29.95R
6HR MIN TEMP:  62; 6HR MAX TEMP:  71; 6HR PCP:  0.03;

WAUKESHA       CLEAR     57  50  77 NW7       29.98R
MILWAUKEE/TIMM CLEAR     59  50  72 NW7       29.96R
RACINE         CLOUDY    62  52  69 N14G21    29.95R
6HR MIN TEMP:  62; 6HR MAX TEMP:  72; 6HR PCP:  0.01;

BURLINGTON     CLEAR     59  51  74 N12       29.96R
KENOSHA        CLOUDY    62  54  74 NW8       29.95R
6HR MIN TEMP:  62; 6HR MAX TEMP:  73; 6HR PCP:  0.19;

FOND DU LAC    CLEAR     59  51  75 N12       29.99R
6HR MIN TEMP:  59; 6HR MAX TEMP:  69; 6HR PCP:  0.09;

SHEBOYGAN      CLEAR     60  50  69 N12       29.96R
6HR MIN TEMP:  59; 6HR MAX TEMP:  66; 6HR PCP:  0.01;

WEST BEND      CLEAR     57  50  77 NW9       29.96R
JUNEAU         CLEAR     58  52  78 NW9G16    30.00R
$$

LSZ147-162-280700-
LAKE SUPERIOR

STATION/POSITION TIME  TEMP    WIND        PRES    WAVE
                       AIR SEA DIR/SP/G            HT/PER
                 (UTC) (F)     (DEG/KT/KT) (MB)    (FT/S)
W MID LAKE BUOY  0450   48 43  290/  8/  8 1018.7R   1/ 4
PORT WING        0500   55     130/  2/  4 1019.3
SAXON HARBOR     0500             CALM     1019.0R
$$

LMZ867-665-643>646-280700-
LAKE MICHIGAN

STATION/POSITION TIME  TEMP    WIND        PRES    WAVE
                       AIR SEA DIR/SP/G            HT/PER
                 (UTC) (F)     (DEG/KT/KT) (MB)    (FT/S)
N MID LAKE BUOY  0450   56 55  350/ 19/ 23 1012.5R   4/ 5
NORTHPORT PIER   0501   58     340/ 21/ 25 1014.6R
KEWAUNEE LAKESHO 0500   60     350/ 12/ 17 1014.8R
SHEBOYGAN LAKESH 0500   58     350/ 17/ 18 1013.7R
PORT WASHINGTON  0500   64     350/  5/ 13 1014.2R
ATWATER BUOY     0500   63     340/ 14     1014.5R
MILWAUKEE LAKESH 0500   63     340/ 11/ 14   N/A
S MID LAKE BUOY  0450   62 61  340/ 23/ 29 1010.8R   7/ 7
KENOSHA   LAKESH 0500   64     340/ 17/ 24 1012.9R
$$

TC  - TEMPERATURE IN CELSIUS
VSB - VISIBILITY IN STATUTE MILES
WCI - WIND CHILL INDEX
HX  - HEAT INDEX




USA.gov is the U.S. government's official web portal to all federal, state and local government web resources and services.